Time,TemperatureF,DewpointF,PressureIn,WindDirection,WindDirectionDegrees,WindSpeedMPH,WindSpeedGustMPH,Humidity,HourlyPrecipIn,Conditions,Clouds,dailyrainin,SoftwareType,DateUTC
2013-01-13 00:00:00,10.0,8.1,30.33,NNE,27,0.0,0.0,92,0.00,,---,0.00,VWS V14.01,2013-01-13 08:00:00,
2013-01-13 00:03:00,10.0,8.1,30.33,NNE,27,0.0,0.0,92,0.00,,---,0.00,VWS V14.01,2013-01-13 08:03:00,
2013-01-13 00:08:00,10.0,8.1,30.33,NNE,27,0.0,0.0,92,0.00,,---,0.00,VWS V14.01,2013-01-13 08:08:00,
2013-01-13 00:13:00,10.1,8.2,30.33,NNE,27,0.0,1.0,92,0.00,,---,0.00,VWS V14.01,2013-01-13 08:13:00,
2013-01-13 00:18:00,10.2,8.3,30.33,NNE,27,0.0,1.0,92,0.00,,---,0.00,VWS V14.01,2013-01-13 08:18:00,
2013-01-13 00:23:00,10.3,8.4,30.33,NNE,27,0.0,1.0,92,0.00,,---,0.00,VWS V14.01,2013-01-13 08:23:00,
2013-01-13 00:28:00,10.3,8.4,30.34,NNE,27,0.0,1.0,92,0.00,,---,0.00,VWS V14.01,2013-01-13 08:28:00,
2013-01-13 00:33:00,10.3,8.4,30.34,NNE,27,0.0,1.0,92,0.00,,---,0.00,VWS V14.01,2013-01-13 08:33:00,
2013-01-13 00:38:00,10.3,8.4,30.34,NNE,27,0.0,1.0,92,0.00,,---,0.00,VWS V14.01,2013-01-13 08:38:00,
2013-01-13 00:43:00,10.4,8.5,30.34,NNE,27,0.0,1.0,92,0.00,,---,0.00,VWS V14.01,2013-01-13 08:43:00,
2013-01-13 00:48:00,10.4,8.5,30.34,NNE,27,0.0,1.0,92,0.00,,---,0.00,VWS V14.01,2013-01-13 08:48:00,
2013-01-13 00:53:00,10.4,8.5,30.34,NNE,27,0.0,1.0,92,0.00,,---,0.00,VWS V14.01,2013-01-13 08:53:00,
2013-01-13 00:58:00,10.5,8.6,30.34,NNE,27,0.0,1.0,92,0.00,,---,0.00,VWS V14.01,2013-01-13 08:58:00,
2013-01-13 01:00:00,10.6,8.7,30.34,NNE,27,0.0,1.0,92,0.00,,---,0.00,VWS V14.01,2013-01-13 09:00:00,
2013-01-13 01:03:00,10.6,8.7,30.34,NNE,27,0.0,0.0,92,0.00,,---,0.00,VWS V14.01,2013-01-13 09:03:00,
2013-01-13 01:08:00,10.7,8.8,30.34,NNE,27,0.0,0.0,92,0.00,,---,0.00,VWS V14.01,2013-01-13 09:08:00,
2013-01-13 01:13:00,10.7,8.8,30.34,NNE,27,0.0,0.0,92,0.00,,---,0.00,VWS V14.01,2013-01-13 09:13:00,
2013-01-13 01:18:00,10.8,8.9,30.34,NNE,27,0.0,0.0,92,0.00,,---,0.00,VWS V14.01,2013-01-13 09:18:00,
2013-01-13 01:23:00,10.9,9.0,30.35,NNE,27,0.0,0.0,92,0.00,,---,0.00,VWS V14.01,2013-01-13 09:23:00,
2013-01-13 01:28:00,11.0,9.1,30.35,NNE,27,0.0,0.0,92,0.00,,---,0.00,VWS V14.01,2013-01-13 09:28:00,
2013-01-13 01:33:00,11.1,9.2,30.35,NNE,27,0.0,0.0,92,0.00,,---,0.00,VWS V14.01,2013-01-13 09:33:00,
2013-01-13 01:38:00,11.2,9.3,30.35,NNE,27,0.0,0.0,92,0.00,,---,0.00,VWS V14.01,2013-01-13 09:38:00,
2013-01-13 01:43:00,11.3,9.4,30.35,NNE,27,0.0,0.0,92,0.00,,---,0.00,VWS V14.01,2013-01-13 09:43:00,
2013-01-13 01:48:00,11.3,9.4,30.35,NNE,27,0.0,0.0,92,0.00,,---,0.00,VWS V14.01,2013-01-13 09:48:00,
2013-01-13 01:53:00,11.4,9.5,30.35,NNE,27,0.0,0.0,92,0.00,,---,0.00,VWS V14.01,2013-01-13 09:53:00,
2013-01-13 01:58:00,11.4,9.5,30.35,NNE,27,0.0,0.0,92,0.00,,---,0.00,VWS V14.01,2013-01-13 09:58:00,
2013-01-13 02:00:00,11.4,9.5,30.35,NNE,27,0.0,0.0,92,0.00,,---,0.00,VWS V14.01,2013-01-13 10:00:00,
2013-01-13 02:03:00,11.5,9.6,30.35,NNE,27,0.0,0.0,92,0.00,,---,0.00,VWS V14.01,2013-01-13 10:03:00,
2013-01-13 02:08:00,11.6,9.7,30.35,NNE,27,0.0,0.0,92,0.00,,---,0.00,VWS V14.01,2013-01-13 10:08:00,
2013-01-13 02:13:00,11.6,9.7,30.35,NNE,27,0.0,0.0,92,0.00,,---,0.00,VWS V14.01,2013-01-13 10:13:00,
2013-01-13 02:18:00,11.6,9.7,30.35,NNE,27,0.0,0.0,92,0.00,,---,0.00,VWS V14.01,2013-01-13 10:18:00,
2013-01-13 02:23:00,11.6,9.7,30.35,NNE,27,0.0,0.0,92,0.00,,---,0.00,VWS V14.01,2013-01-13 10:23:00,
2013-01-13 02:28:00,11.7,9.8,30.35,NNE,27,0.0,0.0,92,0.00,,---,0.00,VWS V14.01,2013-01-13 10:28:00,
2013-01-13 02:33:00,11.7,9.8,30.35,NNE,27,0.0,0.0,92,0.00,,---,0.00,VWS V14.01,2013-01-13 10:33:00,
2013-01-13 02:38:00,11.8,9.9,30.35,NNE,27,0.0,0.0,92,0.00,,---,0.00,VWS V14.01,2013-01-13 10:38:00,
2013-01-13 02:43:00,11.9,10.0,30.35,NNE,27,0.0,0.0,92,0.00,,---,0.00,VWS V14.01,2013-01-13 10:43:00,
2013-01-13 02:48:00,12.0,10.1,30.35,NNE,27,0.0,0.0,92,0.00,,---,0.00,VWS V14.01,2013-01-13 10:48:00,
2013-01-13 02:53:00,12.0,10.4,30.35,NNE,27,0.0,0.0,93,0.00,,---,0.00,VWS V14.01,2013-01-13 10:53:00,
2013-01-13 02:58:00,12.1,10.5,30.35,NNE,27,0.0,0.0,93,0.00,,---,0.00,VWS V14.01,2013-01-13 10:58:00,
2013-01-13 03:00:00,12.2,10.6,30.35,NNE,27,0.0,0.0,93,0.00,,---,0.00,VWS V14.01,2013-01-13 11:00:00,
2013-01-13 03:03:00,12.2,10.6,30.35,NNE,27,0.0,0.0,93,0.00,,---,0.00,VWS V14.01,2013-01-13 11:03:00,
2013-01-13 03:08:00,12.3,10.7,30.35,NNE,27,0.0,0.0,93,0.00,,---,0.00,VWS V14.01,2013-01-13 11:08:00,
2013-01-13 03:13:00,12.4,10.8,30.35,NNE,27,0.0,0.0,93,0.00,,---,0.00,VWS V14.01,2013-01-13 11:13:00,
2013-01-13 03:18:00,12.5,10.9,30.35,NNE,27,0.0,0.0,93,0.00,,---,0.00,VWS V14.01,2013-01-13 11:18:00,
2013-01-13 03:23:00,12.5,10.9,30.35,NNE,27,0.0,0.0,93,0.00,,---,0.00,VWS V14.01,2013-01-13 11:23:00,
2013-01-13 03:28:00,12.6,11.0,30.35,NNE,27,0.0,0.0,93,0.00,,---,0.00,VWS V14.01,2013-01-13 11:28:00,
2013-01-13 03:33:00,12.7,11.1,30.35,NNE,27,0.0,0.0,93,0.00,,---,0.00,VWS V14.01,2013-01-13 11:33:00,
2013-01-13 03:38:00,12.7,11.1,30.36,NNE,27,0.0,0.0,93,0.00,,---,0.00,VWS V14.01,2013-01-13 11:38:00,
2013-01-13 03:43:00,12.7,11.1,30.36,NNE,27,0.0,0.0,93,0.00,,---,0.00,VWS V14.01,2013-01-13 11:43:00,
2013-01-13 03:48:00,12.8,11.2,30.36,NNE,27,0.0,0.0,93,0.00,,---,0.00,VWS V14.01,2013-01-13 11:48:00,
2013-01-13 03:53:00,12.8,11.2,30.36,NNE,27,0.0,0.0,93,0.00,,---,0.00,VWS V14.01,2013-01-13 11:53:00,
2013-01-13 03:58:00,12.9,11.3,30.36,NNE,27,0.0,0.0,93,0.00,,---,0.00,VWS V14.01,2013-01-13 11:58:00,
2013-01-13 04:00:00,12.9,11.3,30.35,NNE,27,0.0,0.0,93,0.00,,---,0.00,VWS V14.01,2013-01-13 12:00:00,
2013-01-13 04:03:00,12.9,11.3,30.35,NNE,27,0.0,0.0,93,0.00,,---,0.00,VWS V14.01,2013-01-13 12:03:00,
2013-01-13 04:08:00,12.9,11.3,30.35,NNE,27,0.0,0.0,93,0.00,,---,0.00,VWS V14.01,2013-01-13 12:08:00,
2013-01-13 04:13:00,12.9,11.3,30.35,NNE,27,0.0,0.0,93,0.00,,---,0.00,VWS V14.01,2013-01-13 12:13:00,
2013-01-13 04:18:00,13.0,11.4,30.35,NNE,27,0.0,0.0,93,0.00,,---,0.00,VWS V14.01,2013-01-13 12:18:00,
2013-01-13 04:23:00,13.0,11.4,30.35,NNE,27,0.0,0.0,93,0.00,,---,0.00,VWS V14.01,2013-01-13 12:23:00,
2013-01-13 04:28:00,13.1,11.5,30.35,NNE,27,0.0,0.0,93,0.00,,---,0.00,VWS V14.01,2013-01-13 12:28:00,
2013-01-13 04:33:00,13.1,11.5,30.35,NNE,27,0.0,0.0,93,0.00,,---,0.00,VWS V14.01,2013-01-13 12:33:00,
2013-01-13 04:38:00,13.1,11.5,30.35,NNE,27,0.0,0.0,93,0.00,,---,0.00,VWS V14.01,2013-01-13 12:38:00,
2013-01-13 04:43:00,13.1,11.5,30.35,NNE,27,0.0,0.0,93,0.00,,---,0.00,VWS V14.01,2013-01-13 12:43:00,
2013-01-13 04:48:00,13.1,11.5,30.35,NNE,27,0.0,0.0,93,0.00,,---,0.00,VWS V14.01,2013-01-13 12:48:00,
2013-01-13 04:53:00,13.1,11.5,30.35,NNE,27,0.0,0.0,93,0.00,,---,0.00,VWS V14.01,2013-01-13 12:53:00,
2013-01-13 04:58:00,13.1,11.2,30.36,NNE,27,0.0,0.0,92,0.00,,---,0.00,VWS V14.01,2013-01-13 12:58:00,
2013-01-13 05:00:00,13.1,11.5,30.36,NNE,27,0.0,0.0,93,0.00,,---,0.00,VWS V14.01,2013-01-13 13:00:00,
2013-01-13 05:03:00,13.0,11.1,30.36,NNE,27,0.0,0.0,92,0.00,,---,0.00,VWS V14.01,2013-01-13 13:03:00,
2013-01-13 05:08:00,13.0,11.1,30.36,NNE,27,0.0,0.0,92,0.00,,---,0.00,VWS V14.01,2013-01-13 13:08:00,
2013-01-13 05:13:00,12.8,10.9,30.36,NNE,27,0.0,0.0,92,0.00,,---,0.00,VWS V14.01,2013-01-13 13:13:00,
2013-01-13 05:18:00,12.6,10.7,30.36,NNE,27,0.0,0.0,92,0.00,,---,0.00,VWS V14.01,2013-01-13 13:18:00,
2013-01-13 05:23:00,12.5,10.4,30.36,NNE,27,0.0,0.0,91,0.00,,---,0.00,VWS V14.01,2013-01-13 13:23:00,
2013-01-13 05:28:00,12.1,10.0,30.36,NNE,27,0.0,0.0,91,0.00,,---,0.00,VWS V14.01,2013-01-13 13:28:00,
2013-01-13 05:33:00,11.8,9.7,30.36,NNE,27,0.0,0.0,91,0.00,,---,0.00,VWS V14.01,2013-01-13 13:33:00,
2013-01-13 05:38:00,11.6,9.2,30.37,NNE,27,0.0,0.0,90,0.00,,---,0.00,VWS V14.01,2013-01-13 13:38:00,
2013-01-13 05:43:00,11.3,8.9,30.37,NNE,27,0.0,0.0,90,0.00,,---,0.00,VWS V14.01,2013-01-13 13:43:00,
2013-01-13 05:48:00,11.0,8.4,30.37,NNE,27,0.0,0.0,89,0.00,,---,0.00,VWS V14.01,2013-01-13 13:48:00,
2013-01-13 05:53:00,10.7,8.4,30.38,NNE,27,0.0,0.0,90,0.00,,---,0.00,VWS V14.01,2013-01-13 13:53:00,
2013-01-13 05:58:00,10.3,7.7,30.38,NNE,27,0.0,0.0,89,0.00,,---,0.00,VWS V14.01,2013-01-13 13:58:00,
2013-01-13 06:00:00,10.0,7.4,30.38,NNE,27,0.0,0.0,89,0.00,,---,0.00,VWS V14.01,2013-01-13 14:00:00,
2013-01-13 06:03:00,9.9,7.3,30.38,NNE,27,0.0,0.0,89,0.00,,---,0.00,VWS V14.01,2013-01-13 14:03:00,
2013-01-13 06:08:00,9.5,6.9,30.38,NNE,27,0.0,0.0,89,0.00,,---,0.00,VWS V14.01,2013-01-13 14:08:00,
2013-01-13 06:13:00,9.3,6.7,30.39,NNE,27,0.0,0.0,89,0.00,,---,0.00,VWS V14.01,2013-01-13 14:13:00,
2013-01-13 06:18:00,9.1,6.5,30.39,NNE,27,0.0,0.0,89,0.00,,---,0.00,VWS V14.01,2013-01-13 14:18:00,
2013-01-13 06:23:00,8.9,6.3,30.39,NNE,27,0.0,0.0,89,0.00,,---,0.00,VWS V14.01,2013-01-13 14:23:00,
2013-01-13 06:28:00,8.8,6.5,30.40,NNE,27,0.0,0.0,90,0.00,,---,0.00,VWS V14.01,2013-01-13 14:28:00,
2013-01-13 06:33:00,8.8,6.5,30.40,NNE,27,0.0,0.0,90,0.00,,---,0.00,VWS V14.01,2013-01-13 14:33:00,
2013-01-13 06:38:00,8.9,6.8,30.40,NNE,27,0.0,0.0,91,0.00,,---,0.00,VWS V14.01,2013-01-13 14:38:00,
2013-01-13 06:43:00,9.0,6.9,30.41,NNE,27,0.0,0.0,91,0.00,,---,0.00,VWS V14.01,2013-01-13 14:43:00,
2013-01-13 06:48:00,9.2,7.3,30.41,NNE,27,0.0,0.0,92,0.00,,---,0.00,VWS V14.01,2013-01-13 14:48:00,
2013-01-13 06:53:00,9.4,7.6,30.41,NNE,27,0.0,0.0,92,0.00,,---,0.00,VWS V14.01,2013-01-13 14:53:00,
2013-01-13 06:58:00,9.6,7.8,30.41,NNE,27,0.0,0.0,92,0.00,,---,0.00,VWS V14.01,2013-01-13 14:58:00,
2013-01-13 07:00:00,9.8,8.2,30.41,NNE,27,0.0,0.0,93,0.00,,---,0.00,VWS V14.01,2013-01-13 15:00:00,
2013-01-13 07:03:00,9.8,8.2,30.41,NNE,27,0.0,0.0,93,0.00,,---,0.00,VWS V14.01,2013-01-13 15:03:00,
2013-01-13 07:08:00,9.9,8.3,30.41,NNE,27,0.0,0.0,93,0.00,,---,0.00,VWS V14.01,2013-01-13 15:08:00,
2013-01-13 07:13:00,10.2,8.6,30.42,NNE,27,0.0,0.0,93,0.00,,---,0.00,VWS V14.01,2013-01-13 15:13:00,
2013-01-13 07:18:00,10.4,8.8,30.42,NNE,27,0.0,0.0,93,0.00,,---,0.00,VWS V14.01,2013-01-13 15:18:00,
2013-01-13 07:23:00,10.7,9.1,30.42,NNE,27,0.0,0.0,93,0.00,,---,0.00,VWS V14.01,2013-01-13 15:23:00,
2013-01-13 07:28:00,10.9,9.3,30.42,NNE,27,0.0,0.0,93,0.00,,---,0.00,VWS V14.01,2013-01-13 15:28:00,
2013-01-13 07:33:00,11.0,9.4,30.42,NNE,27,0.0,0.0,93,0.00,,---,0.00,VWS V14.01,2013-01-13 15:33:00,
2013-01-13 07:38:00,11.2,9.6,30.43,NNE,27,0.0,0.0,93,0.00,,---,0.00,VWS V14.01,2013-01-13 15:38:00,
2013-01-13 07:43:00,11.4,9.8,30.43,NNE,27,0.0,0.0,93,0.00,,---,0.00,VWS V14.01,2013-01-13 15:43:00,
2013-01-13 07:48:00,11.6,10.0,30.43,NNE,27,0.0,0.0,93,0.00,,---,0.00,VWS V14.01,2013-01-13 15:48:00,
2013-01-13 07:53:00,11.7,10.1,30.43,NNE,27,0.0,0.0,93,0.00,,---,0.00,VWS V14.01,2013-01-13 15:53:00,
2013-01-13 07:58:00,11.8,10.2,30.44,NNE,27,0.0,0.0,93,0.00,,---,0.00,VWS V14.01,2013-01-13 15:58:00,
2013-01-13 08:00:00,11.9,10.3,30.44,NNE,27,0.0,0.0,93,0.00,,---,0.00,VWS V14.01,2013-01-13 16:00:00,
2013-01-13 08:03:00,12.0,10.4,30.44,NNE,27,0.0,0.0,93,0.00,,---,0.00,VWS V14.01,2013-01-13 16:03:00,
2013-01-13 08:08:00,12.3,10.7,30.44,NNE,27,0.0,0.0,93,0.00,,---,0.00,VWS V14.01,2013-01-13 16:08:00,
2013-01-13 08:13:00,12.6,11.2,30.44,NNE,27,0.0,0.0,94,0.00,,---,0.00,VWS V14.01,2013-01-13 16:13:00,
2013-01-13 08:18:00,13.1,11.7,30.44,NNE,27,0.0,0.0,94,0.00,,---,0.00,VWS V14.01,2013-01-13 16:18:00,
2013-01-13 08:23:00,13.3,11.9,30.44,NNE,27,0.0,0.0,94,0.00,,---,0.00,VWS V14.01,2013-01-13 16:23:00,
2013-01-13 08:28:00,13.5,12.1,30.44,NNE,27,1.0,2.0,94,0.00,,---,0.00,VWS V14.01,2013-01-13 16:28:00,
2013-01-13 08:33:00,13.6,12.2,30.44,NNE,27,0.0,2.0,94,0.00,,---,0.00,VWS V14.01,2013-01-13 16:33:00,
2013-01-13 08:38:00,13.7,12.1,30.44,NNE,27,0.0,2.0,93,0.00,,---,0.00,VWS V14.01,2013-01-13 16:38:00,
2013-01-13 08:43:00,14.1,12.7,30.44,NNE,27,0.0,2.0,94,0.00,,---,0.00,VWS V14.01,2013-01-13 16:43:00,
2013-01-13 08:48:00,14.2,12.6,30.44,NNE,27,0.0,2.0,93,0.00,,---,0.00,VWS V14.01,2013-01-13 16:48:00,
2013-01-13 08:53:00,14.3,12.6,30.44,NNE,27,0.0,2.0,93,0.00,,---,0.00,VWS V14.01,2013-01-13 16:53:00,
2013-01-13 08:58:00,14.3,12.6,30.44,NNE,27,0.0,2.0,93,0.00,,---,0.00,VWS V14.01,2013-01-13 16:58:00,
2013-01-13 09:00:00,14.4,12.8,30.44,NNE,27,0.0,2.0,93,0.00,,---,0.00,VWS V14.01,2013-01-13 17:00:00,
2013-01-13 09:03:00,14.4,12.8,30.44,NNE,27,0.0,0.0,93,0.00,,---,0.00,VWS V14.01,2013-01-13 17:03:00,
2013-01-13 09:08:00,14.7,13.1,30.44,NNE,27,0.0,1.0,93,0.00,,---,0.00,VWS V14.01,2013-01-13 17:08:00,
2013-01-13 09:13:00,14.7,13.1,30.44,NNE,27,0.0,1.0,93,0.00,,---,0.00,VWS V14.01,2013-01-13 17:13:00,
2013-01-13 09:18:00,15.4,14.0,30.44,NNE,27,0.0,1.0,94,0.00,,---,0.00,VWS V14.01,2013-01-13 17:18:00,
2013-01-13 09:23:00,15.4,13.7,30.44,NNE,27,0.0,1.0,93,0.00,,---,0.00,VWS V14.01,2013-01-13 17:23:00,
2013-01-13 09:28:00,15.6,14.2,30.44,NNE,27,0.0,2.0,94,0.00,,---,0.00,VWS V14.01,2013-01-13 17:28:00,
2013-01-13 09:33:00,15.7,14.0,30.44,NNE,27,0.0,2.0,93,0.00,,---,0.00,VWS V14.01,2013-01-13 17:33:00,
2013-01-13 09:38:00,15.3,13.4,30.44,NNE,27,0.0,2.0,92,0.00,,---,0.00,VWS V14.01,2013-01-13 17:38:00,
2013-01-13 09:43:00,14.8,12.9,30.44,NNE,27,0.0,2.0,92,0.00,,---,0.00,VWS V14.01,2013-01-13 17:43:00,
2013-01-13 09:48:00,15.1,13.4,30.44,NNE,27,0.0,2.0,93,0.00,,---,0.00,VWS V14.01,2013-01-13 17:48:00,
2013-01-13 09:53:00,15.3,13.6,30.44,NNE,27,0.0,2.0,93,0.00,,---,0.00,VWS V14.01,2013-01-13 17:53:00,
2013-01-13 09:58:00,15.4,13.7,30.44,NNE,27,0.0,2.0,93,0.00,,---,0.00,VWS V14.01,2013-01-13 17:58:00,
2013-01-13 10:00:00,15.3,13.6,30.44,NNE,27,0.0,2.0,93,0.00,,---,0.00,VWS V14.01,2013-01-13 18:00:00,
2013-01-13 10:03:00,15.3,13.6,30.44,NNE,27,0.0,0.0,93,0.00,,---,0.00,VWS V14.01,2013-01-13 18:03:00,
2013-01-13 10:08:00,16.0,14.3,30.44,NNE,27,0.0,0.0,93,0.00,,---,0.00,VWS V14.01,2013-01-13 18:08:00,
2013-01-13 10:13:00,16.7,15.3,30.43,NNE,27,0.0,1.0,94,0.00,,---,0.00,VWS V14.01,2013-01-13 18:13:00,
2013-01-13 10:18:00,17.2,15.5,30.44,NNE,27,0.0,2.0,93,0.00,,---,0.00,VWS V14.01,2013-01-13 18:18:00,
2013-01-13 10:23:00,17.4,15.7,30.44,NNE,27,0.0,2.0,93,0.00,,---,0.00,VWS V14.01,2013-01-13 18:23:00,
2013-01-13 10:28:00,16.8,14.9,30.44,NNE,27,1.0,2.0,92,0.00,,---,0.00,VWS V14.01,2013-01-13 18:28:00,
2013-01-13 10:33:00,17.8,16.1,30.44,NNE,27,0.0,2.0,93,0.00,,---,0.00,VWS V14.01,2013-01-13 18:33:00,
2013-01-13 10:38:00,18.0,16.1,30.44,NNE,27,0.0,2.0,92,0.00,,---,0.00,VWS V14.01,2013-01-13 18:38:00,
2013-01-13 10:43:00,17.9,16.0,30.44,NNE,27,3.0,3.0,92,0.00,,---,0.00,VWS V14.01,2013-01-13 18:43:00,
2013-01-13 10:48:00,18.0,16.1,30.44,NNE,27,2.0,3.0,92,0.00,,---,0.00,VWS V14.01,2013-01-13 18:48:00,
2013-01-13 10:53:00,18.2,16.3,30.44,NNE,27,0.0,3.0,92,0.00,,---,0.00,VWS V14.01,2013-01-13 18:53:00,
2013-01-13 10:58:00,18.3,16.1,30.44,NNE,27,0.0,3.0,91,0.00,,---,0.00,VWS V14.01,2013-01-13 18:58:00,
2013-01-13 11:00:00,18.4,16.2,30.44,NNE,27,0.0,3.0,91,0.00,,---,0.00,VWS V14.01,2013-01-13 19:00:00,
2013-01-13 11:03:00,18.4,16.2,30.44,NNE,27,0.0,0.0,91,0.00,,---,0.00,VWS V14.01,2013-01-13 19:03:00,
2013-01-13 11:08:00,18.3,15.9,30.44,NNE,27,1.0,1.0,90,0.00,,---,0.00,VWS V14.01,2013-01-13 19:08:00,
2013-01-13 11:13:00,18.5,16.1,30.44,NNE,27,1.0,3.0,90,0.00,,---,0.00,VWS V14.01,2013-01-13 19:13:00,
2013-01-13 11:18:00,18.1,15.7,30.44,NNE,27,0.0,3.0,90,0.00,,---,0.00,VWS V14.01,2013-01-13 19:18:00,
2013-01-13 11:23:00,18.5,16.3,30.44,NNE,27,0.0,3.0,91,0.00,,---,0.00,VWS V14.01,2013-01-13 19:23:00,
2013-01-13 11:28:00,18.4,16.0,30.44,NNE,27,2.0,3.0,90,0.00,,---,0.00,VWS V14.01,2013-01-13 19:28:00,
2013-01-13 11:33:00,18.5,16.1,30.44,NE,41,1.0,4.0,90,0.00,,---,0.00,VWS V14.01,2013-01-13 19:33:00,
2013-01-13 11:38:00,18.6,15.9,30.44,NE,52,0.0,4.0,89,0.00,,---,0.00,VWS V14.01,2013-01-13 19:38:00,
2013-01-13 11:43:00,19.1,16.4,30.44,ENE,58,0.0,4.0,89,0.00,,---,0.00,VWS V14.01,2013-01-13 19:43:00,
2013-01-13 11:48:00,19.5,16.5,30.44,ENE,58,0.0,4.0,88,0.00,,---,0.00,VWS V14.01,2013-01-13 19:48:00,
2013-01-13 11:53:00,19.4,16.4,30.44,ENE,58,0.0,4.0,88,0.00,,---,0.00,VWS V14.01,2013-01-13 19:53:00,
2013-01-13 11:58:00,19.1,15.9,30.44,ENE,58,1.0,4.0,87,0.00,,---,0.00,VWS V14.01,2013-01-13 19:58:00,
2013-01-13 12:00:00,18.5,15.3,30.43,ENE,58,0.0,4.0,87,0.00,,---,0.00,VWS V14.01,2013-01-13 20:00:00,
2013-01-13 12:03:00,18.2,15.0,30.43,ENE,58,0.0,1.0,87,0.00,,---,0.00,VWS V14.01,2013-01-13 20:03:00,
2013-01-13 12:08:00,18.6,15.9,30.43,ENE,58,0.0,1.0,89,0.00,,---,0.00,VWS V14.01,2013-01-13 20:08:00,
2013-01-13 12:13:00,18.8,16.1,30.43,ENE,58,0.0,3.0,89,0.00,,---,0.00,VWS V14.01,2013-01-13 20:13:00,
2013-01-13 12:18:00,18.5,15.6,30.43,ENE,59,0.0,3.0,88,0.00,,---,0.00,VWS V14.01,2013-01-13 20:18:00,
2013-01-13 12:23:00,18.5,15.6,30.43,ENE,59,0.0,3.0,88,0.00,,---,0.00,VWS V14.01,2013-01-13 20:23:00,
2013-01-13 12:28:00,18.5,15.6,30.43,ENE,59,0.0,3.0,88,0.00,,---,0.00,VWS V14.01,2013-01-13 20:28:00,
2013-01-13 12:33:00,18.8,16.1,30.43,ENE,59,0.0,3.0,89,0.00,,---,0.00,VWS V14.01,2013-01-13 20:33:00,
2013-01-13 12:38:00,19.3,16.3,30.43,ENE,59,0.0,3.0,88,0.00,,---,0.00,VWS V14.01,2013-01-13 20:38:00,
2013-01-13 12:43:00,19.7,16.5,30.43,ENE,59,1.0,3.0,87,0.00,,---,0.00,VWS V14.01,2013-01-13 20:43:00,
2013-01-13 12:48:00,19.5,16.3,30.43,ENE,59,0.0,3.0,87,0.00,,---,0.00,VWS V14.01,2013-01-13 20:48:00,
2013-01-13 12:53:00,19.4,15.9,30.42,ENE,59,0.0,3.0,86,0.00,,---,0.00,VWS V14.01,2013-01-13 20:53:00,
2013-01-13 12:58:00,19.3,16.1,30.43,ENE,59,0.0,3.0,87,0.00,,---,0.00,VWS V14.01,2013-01-13 20:58:00,
2013-01-13 13:00:00,19.6,16.4,30.43,ENE,59,2.0,3.0,87,0.00,,---,0.00,VWS V14.01,2013-01-13 21:00:00,
2013-01-13 13:03:00,19.7,16.5,30.43,ENE,59,0.0,2.0,87,0.00,,---,0.00,VWS V14.01,2013-01-13 21:03:00,
2013-01-13 13:08:00,19.5,16.0,30.43,ENE,59,0.0,2.0,86,0.00,,---,0.00,VWS V14.01,2013-01-13 21:08:00,
2013-01-13 13:13:00,20.4,16.9,30.43,ENE,59,0.0,2.0,86,0.00,,---,0.00,VWS V14.01,2013-01-13 21:13:00,
2013-01-13 13:18:00,20.8,16.5,30.42,ENE,59,1.0,3.0,83,0.00,,---,0.00,VWS V14.01,2013-01-13 21:18:00,
2013-01-13 13:23:00,20.7,16.4,30.42,ENE,59,1.0,3.0,83,0.00,,---,0.00,VWS V14.01,2013-01-13 21:23:00,
2013-01-13 13:28:00,20.4,16.1,30.42,ENE,59,1.0,3.0,83,0.00,,---,0.00,VWS V14.01,2013-01-13 21:28:00,
2013-01-13 13:33:00,19.9,15.6,30.42,ENE,59,0.0,3.0,83,0.00,,---,0.00,VWS V14.01,2013-01-13 21:33:00,
2013-01-13 13:38:00,19.4,14.8,30.42,ENE,59,0.0,3.0,82,0.00,,---,0.00,VWS V14.01,2013-01-13 21:38:00,
2013-01-13 13:43:00,19.6,15.6,30.42,ENE,59,0.0,3.0,84,0.00,,---,0.00,VWS V14.01,2013-01-13 21:43:00,
2013-01-13 13:48:00,19.7,15.9,30.42,ENE,59,0.0,3.0,85,0.00,,---,0.00,VWS V14.01,2013-01-13 21:48:00,
2013-01-13 13:53:00,20.4,16.6,30.42,ENE,59,0.0,3.0,85,0.00,,---,0.00,VWS V14.01,2013-01-13 21:53:00,
2013-01-13 13:58:00,21.5,16.9,30.42,ENE,59,0.0,3.0,82,0.00,,---,0.00,VWS V14.01,2013-01-13 21:58:00,
2013-01-13 14:00:00,21.1,16.8,30.42,ENE,59,0.0,3.0,83,0.00,,---,0.00,VWS V14.01,2013-01-13 22:00:00,
2013-01-13 14:03:00,20.8,16.7,30.42,ENE,59,3.0,3.0,84,0.00,,---,0.00,VWS V14.01,2013-01-13 22:03:00,
2013-01-13 14:08:00,20.4,16.6,30.42,NE,55,3.0,4.0,85,0.00,,---,0.00,VWS V14.01,2013-01-13 22:08:00,
2013-01-13 14:13:00,20.2,16.7,30.42,NNW,345,2.0,4.0,86,0.00,,---,0.00,VWS V14.01,2013-01-13 22:13:00,
2013-01-13 14:18:00,20.3,16.8,30.42,North,355,3.0,4.0,86,0.00,,---,0.00,VWS V14.01,2013-01-13 22:18:00,
2013-01-13 14:23:00,20.7,17.2,30.42,North,355,2.0,4.0,86,0.00,,---,0.00,VWS V14.01,2013-01-13 22:23:00,
2013-01-13 14:28:00,20.9,17.1,30.42,North,351,3.0,4.0,85,0.00,,---,0.00,VWS V14.01,2013-01-13 22:28:00,
2013-01-13 14:33:00,20.9,17.1,30.43,North,5,3.0,5.0,85,0.00,,---,0.00,VWS V14.01,2013-01-13 22:33:00,
2013-01-13 14:38:00,21.0,17.2,30.43,North,360,4.0,5.0,85,0.00,,---,0.00,VWS V14.01,2013-01-13 22:38:00,
2013-01-13 14:43:00,21.3,17.2,30.43,North,355,2.0,5.0,84,0.00,,---,0.00,VWS V14.01,2013-01-13 22:43:00,
2013-01-13 14:48:00,21.6,17.5,30.42,North,355,0.0,5.0,84,0.00,,---,0.00,VWS V14.01,2013-01-13 22:48:00,
2013-01-13 14:53:00,21.3,17.0,30.42,North,355,2.0,5.0,83,0.00,,---,0.00,VWS V14.01,2013-01-13 22:53:00,
2013-01-13 14:58:00,21.2,16.9,30.42,West,277,1.0,6.0,83,0.00,,---,0.00,VWS V14.01,2013-01-13 22:58:00,
2013-01-13 15:00:00,21.1,16.8,30.42,West,277,0.0,6.0,83,0.00,,---,0.00,VWS V14.01,2013-01-13 23:00:00,
2013-01-13 15:03:00,21.3,17.0,30.42,West,277,0.0,1.0,83,0.00,,---,0.00,VWS V14.01,2013-01-13 23:03:00,
2013-01-13 15:08:00,21.4,17.0,30.42,West,277,0.0,1.0,83,0.00,,---,0.00,VWS V14.01,2013-01-13 23:08:00,
2013-01-13 15:13:00,21.2,16.6,30.42,WSW,237,2.0,3.0,82,0.00,,---,0.00,VWS V14.01,2013-01-13 23:13:00,
2013-01-13 15:18:00,21.3,16.7,30.42,WSW,237,2.0,3.0,82,0.00,,---,0.00,VWS V14.01,2013-01-13 23:18:00,
2013-01-13 15:23:00,21.0,16.1,30.42,NW,308,0.0,3.0,81,0.00,,---,0.00,VWS V14.01,2013-01-13 23:23:00,
2013-01-13 15:28:00,20.5,15.9,30.42,SW,217,1.0,3.0,82,0.00,,---,0.00,VWS V14.01,2013-01-13 23:28:00,
2013-01-13 15:33:00,20.0,15.4,30.42,SW,217,1.0,3.0,82,0.00,,---,0.00,VWS V14.01,2013-01-13 23:33:00,
2013-01-13 15:38:00,19.5,15.2,30.42,SW,217,0.0,3.0,83,0.00,,---,0.00,VWS V14.01,2013-01-13 23:38:00,
2013-01-13 15:43:00,19.3,15.3,30.43,SW,217,0.0,3.0,84,0.00,,---,0.00,VWS V14.01,2013-01-13 23:43:00,
2013-01-13 15:48:00,18.7,14.7,30.43,SW,217,0.0,3.0,84,0.00,,---,0.00,VWS V14.01,2013-01-13 23:48:00,
2013-01-13 15:53:00,18.9,15.1,30.43,SW,217,0.0,3.0,85,0.00,,---,0.00,VWS V14.01,2013-01-13 23:53:00,
2013-01-13 15:58:00,19.1,15.3,30.43,SW,217,0.0,3.0,85,0.00,,---,0.00,VWS V14.01,2013-01-13 23:58:00,
2013-01-13 16:00:00,19.1,15.1,30.43,SW,217,2.0,3.0,84,0.00,,---,0.00,VWS V14.01,2013-01-14 00:00:00,
2013-01-13 16:03:00,19.0,15.0,30.43,SW,217,2.0,2.0,84,0.00,,---,0.00,VWS V14.01,2013-01-14 00:03:00,
2013-01-13 16:08:00,18.9,15.1,30.43,SW,217,1.0,2.0,85,0.00,,---,0.00,VWS V14.01,2013-01-14 00:08:00,
2013-01-13 16:13:00,18.9,14.9,30.43,SW,217,0.0,2.0,84,0.00,,---,0.00,VWS V14.01,2013-01-14 00:13:00,
2013-01-13 16:18:00,18.8,15.1,30.43,SW,217,0.0,2.0,85,0.00,,---,0.00,VWS V14.01,2013-01-14 00:18:00,
2013-01-13 16:23:00,18.6,14.9,30.43,SW,217,0.0,2.0,85,0.00,,---,0.00,VWS V14.01,2013-01-14 00:23:00,
2013-01-13 16:28:00,18.4,14.9,30.43,SW,217,0.0,2.0,86,0.00,,---,0.00,VWS V14.01,2013-01-14 00:28:00,
2013-01-13 16:33:00,18.4,14.9,30.43,SW,217,0.0,2.0,86,0.00,,---,0.00,VWS V14.01,2013-01-14 00:33:00,
2013-01-13 16:38:00,18.3,14.8,30.43,SW,217,0.0,2.0,86,0.00,,---,0.00,VWS V14.01,2013-01-14 00:38:00,
2013-01-13 16:43:00,18.1,14.9,30.43,SW,217,0.0,2.0,87,0.00,,---,0.00,VWS V14.01,2013-01-14 00:43:00,
2013-01-13 16:48:00,17.9,14.7,30.43,SW,217,0.0,2.0,87,0.00,,---,0.00,VWS V14.01,2013-01-14 00:48:00,
2013-01-13 16:53:00,17.6,14.4,30.43,SW,217,0.0,2.0,87,0.00,,---,0.00,VWS V14.01,2013-01-14 00:53:00,
2013-01-13 16:58:00,17.4,14.2,30.43,SW,217,0.0,2.0,87,0.00,,---,0.00,VWS V14.01,2013-01-14 00:58:00,
2013-01-13 17:00:00,17.2,14.3,30.43,SW,217,0.0,2.0,88,0.00,,---,0.00,VWS V14.01,2013-01-14 01:00:00,
2013-01-13 17:03:00,17.2,14.3,30.43,SW,217,0.0,0.0,88,0.00,,---,0.00,VWS V14.01,2013-01-14 01:03:00,
2013-01-13 17:08:00,17.2,14.3,30.44,SW,217,1.0,2.0,88,0.00,,---,0.00,VWS V14.01,2013-01-14 01:08:00,
2013-01-13 17:13:00,17.1,14.2,30.44,SW,217,0.0,2.0,88,0.00,,---,0.00,VWS V14.01,2013-01-14 01:13:00,
2013-01-13 17:18:00,16.9,14.0,30.44,SW,217,0.0,2.0,88,0.00,,---,0.00,VWS V14.01,2013-01-14 01:18:00,
2013-01-13 17:23:00,16.8,14.1,30.44,SW,217,2.0,4.0,89,0.00,,---,0.00,VWS V14.01,2013-01-14 01:23:00,
2013-01-13 17:28:00,16.7,14.0,30.44,SW,217,0.0,4.0,89,0.00,,---,0.00,VWS V14.01,2013-01-14 01:28:00,
2013-01-13 17:33:00,16.4,14.0,30.43,SW,217,0.0,4.0,90,0.00,,---,0.00,VWS V14.01,2013-01-14 01:33:00,
2013-01-13 17:38:00,16.3,13.9,30.42,SW,217,0.0,4.0,90,0.00,,---,0.00,VWS V14.01,2013-01-14 01:38:00,
2013-01-13 17:43:00,15.9,13.5,30.42,SW,217,0.0,4.0,90,0.00,,---,0.00,VWS V14.01,2013-01-14 01:43:00,
2013-01-13 17:48:00,15.5,13.4,30.42,SW,217,0.0,4.0,91,0.00,,---,0.00,VWS V14.01,2013-01-14 01:48:00,
2013-01-13 17:53:00,14.9,12.8,30.42,SW,217,0.0,4.0,91,0.00,,---,0.00,VWS V14.01,2013-01-14 01:53:00,
2013-01-13 17:58:00,14.2,12.1,30.42,SW,217,0.0,4.0,91,0.00,,---,0.00,VWS V14.01,2013-01-14 01:58:00,
2013-01-13 18:00:00,13.8,11.7,30.42,SW,217,0.0,4.0,91,0.00,,---,0.00,VWS V14.01,2013-01-14 02:00:00,
2013-01-13 18:03:00,13.6,11.5,30.43,SW,217,0.0,0.0,91,0.00,,---,0.00,VWS V14.01,2013-01-14 02:03:00,
2013-01-13 18:08:00,13.3,11.4,30.43,SW,217,0.0,0.0,92,0.00,,---,0.00,VWS V14.01,2013-01-14 02:08:00,
2013-01-13 18:13:00,13.1,11.5,30.43,SW,217,0.0,0.0,93,0.00,,---,0.00,VWS V14.01,2013-01-14 02:13:00,
2013-01-13 18:18:00,13.1,11.5,30.43,SW,217,0.0,0.0,93,0.00,,---,0.00,VWS V14.01,2013-01-14 02:18:00,
2013-01-13 18:23:00,12.9,11.3,30.43,SW,217,0.0,0.0,93,0.00,,---,0.00,VWS V14.01,2013-01-14 02:23:00,
2013-01-13 18:28:00,12.7,11.1,30.43,SW,217,0.0,0.0,93,0.00,,---,0.00,VWS V14.01,2013-01-14 02:28:00,
2013-01-13 18:33:00,12.4,10.5,30.44,SW,217,0.0,0.0,92,0.00,,---,0.00,VWS V14.01,2013-01-14 02:33:00,
2013-01-13 18:38:00,12.2,10.3,30.43,SW,217,0.0,0.0,92,0.00,,---,0.00,VWS V14.01,2013-01-14 02:38:00,
2013-01-13 18:43:00,12.1,10.5,30.43,SW,217,0.0,0.0,93,0.00,,---,0.00,VWS V14.01,2013-01-14 02:43:00,
2013-01-13 18:48:00,11.8,9.9,30.43,SW,217,0.0,0.0,92,0.00,,---,0.00,VWS V14.01,2013-01-14 02:48:00,
2013-01-13 18:53:00,11.7,9.8,30.43,SW,217,0.0,0.0,92,0.00,,---,0.00,VWS V14.01,2013-01-14 02:53:00,
2013-01-13 18:58:00,11.6,9.7,30.43,SW,217,0.0,0.0,92,0.00,,---,0.00,VWS V14.01,2013-01-14 02:58:00,
2013-01-13 19:00:00,11.6,9.7,30.43,SW,217,0.0,0.0,92,0.00,,---,0.00,VWS V14.01,2013-01-14 03:00:00,
2013-01-13 19:03:00,11.5,9.6,30.43,SW,217,0.0,0.0,92,0.00,,---,0.00,VWS V14.01,2013-01-14 03:03:00,
2013-01-13 19:08:00,11.2,9.3,30.43,SW,217,0.0,0.0,92,0.00,,---,0.00,VWS V14.01,2013-01-14 03:08:00,
2013-01-13 19:13:00,11.3,9.4,30.43,SW,217,0.0,0.0,92,0.00,,---,0.00,VWS V14.01,2013-01-14 03:13:00,
2013-01-13 19:18:00,11.3,9.4,30.43,SW,217,0.0,0.0,92,0.00,,---,0.00,VWS V14.01,2013-01-14 03:18:00,
2013-01-13 19:23:00,11.1,9.2,30.43,SW,217,0.0,0.0,92,0.00,,---,0.00,VWS V14.01,2013-01-14 03:23:00,
2013-01-13 19:28:00,11.0,9.1,30.44,SW,217,0.0,0.0,92,0.00,,---,0.00,VWS V14.01,2013-01-14 03:28:00,
2013-01-13 19:33:00,11.0,9.1,30.44,SW,217,0.0,0.0,92,0.00,,---,0.00,VWS V14.01,2013-01-14 03:33:00,
2013-01-13 19:38:00,11.1,9.2,30.43,SW,217,0.0,0.0,92,0.00,,---,0.00,VWS V14.01,2013-01-14 03:38:00,
2013-01-13 19:43:00,11.2,9.3,30.43,SW,217,0.0,0.0,92,0.00,,---,0.00,VWS V14.01,2013-01-14 03:43:00,
2013-01-13 19:48:00,11.0,9.1,30.44,SW,217,0.0,0.0,92,0.00,,---,0.00,VWS V14.01,2013-01-14 03:48:00,
2013-01-13 19:53:00,11.0,9.1,30.43,SW,217,0.0,0.0,92,0.00,,---,0.00,VWS V14.01,2013-01-14 03:53:00,
2013-01-13 19:58:00,11.0,9.1,30.43,SW,217,0.0,0.0,92,0.00,,---,0.00,VWS V14.01,2013-01-14 03:58:00,
2013-01-13 20:00:00,11.1,9.2,30.44,SW,217,0.0,0.0,92,0.00,,---,0.00,VWS V14.01,2013-01-14 04:00:00,
2013-01-13 20:03:00,11.1,9.2,30.44,SW,217,0.0,0.0,92,0.00,,---,0.00,VWS V14.01,2013-01-14 04:03:00,
2013-01-13 20:08:00,11.2,9.3,30.44,SW,217,0.0,0.0,92,0.00,,---,0.00,VWS V14.01,2013-01-14 04:08:00,
2013-01-13 20:13:00,11.2,9.3,30.44,SW,217,0.0,0.0,92,0.00,,---,0.00,VWS V14.01,2013-01-14 04:13:00,
2013-01-13 20:18:00,11.2,9.3,30.44,SW,217,0.0,0.0,92,0.00,,---,0.00,VWS V14.01,2013-01-14 04:18:00,
2013-01-13 20:23:00,11.2,9.3,30.44,SW,217,0.0,0.0,92,0.00,,---,0.00,VWS V14.01,2013-01-14 04:23:00,
2013-01-13 20:28:00,11.3,9.4,30.43,SW,217,0.0,0.0,92,0.00,,---,0.00,VWS V14.01,2013-01-14 04:28:00,
2013-01-13 20:33:00,11.3,9.4,30.43,SW,217,0.0,0.0,92,0.00,,---,0.00,VWS V14.01,2013-01-14 04:33:00,
2013-01-13 20:38:00,11.3,9.4,30.43,SW,217,0.0,0.0,92,0.00,,---,0.00,VWS V14.01,2013-01-14 04:38:00,
2013-01-13 20:43:00,11.4,9.5,30.43,SW,218,0.0,0.0,92,0.00,,---,0.00,VWS V14.01,2013-01-14 04:43:00,
2013-01-13 20:48:00,11.5,9.6,30.43,SW,217,0.0,0.0,92,0.00,,---,0.00,VWS V14.01,2013-01-14 04:48:00,
2013-01-13 20:53:00,11.6,9.7,30.43,SW,217,0.0,0.0,92,0.00,,---,0.00,VWS V14.01,2013-01-14 04:53:00,
2013-01-13 20:58:00,11.8,9.9,30.43,SW,217,0.0,0.0,92,0.00,,---,0.00,VWS V14.01,2013-01-14 04:58:00,
2013-01-13 21:00:00,11.9,10.0,30.43,SW,217,0.0,0.0,92,0.00,,---,0.00,VWS V14.01,2013-01-14 05:00:00,
2013-01-13 21:02:00,11.9,10.0,30.43,SW,217,0.0,0.0,92,0.00,,---,0.00,VWS V14.01,2013-01-14 05:02:00,
2013-01-13 21:07:00,12.0,10.1,30.43,SW,217,0.0,0.0,92,0.00,,---,0.00,VWS V14.01,2013-01-14 05:07:00,
2013-01-13 21:12:00,12.1,10.2,30.43,SW,218,0.0,0.0,92,0.00,,---,0.00,VWS V14.01,2013-01-14 05:12:00,
2013-01-13 21:17:00,12.1,10.2,30.44,SW,217,0.0,0.0,92,0.00,,---,0.00,VWS V14.01,2013-01-14 05:17:00,
2013-01-13 21:22:00,12.2,10.3,30.43,SW,217,0.0,0.0,92,0.00,,---,0.00,VWS V14.01,2013-01-14 05:22:00,
2013-01-13 21:27:00,12.3,10.4,30.43,SW,217,0.0,0.0,92,0.00,,---,0.00,VWS V14.01,2013-01-14 05:27:00,
2013-01-13 21:32:00,12.4,10.5,30.43,SW,217,0.0,0.0,92,0.00,,---,0.00,VWS V14.01,2013-01-14 05:32:00,
2013-01-13 21:37:00,12.5,10.6,30.43,SW,217,0.0,0.0,92,0.00,,---,0.00,VWS V14.01,2013-01-14 05:37:00,
2013-01-13 21:42:00,12.5,10.6,30.43,SW,217,0.0,0.0,92,0.00,,---,0.00,VWS V14.01,2013-01-14 05:42:00,
2013-01-13 21:47:00,12.6,10.7,30.43,SW,217,0.0,0.0,92,0.00,,---,0.00,VWS V14.01,2013-01-14 05:47:00,
2013-01-13 21:52:00,12.8,10.9,30.43,SW,217,0.0,0.0,92,0.00,,---,0.00,VWS V14.01,2013-01-14 05:52:00,
2013-01-13 21:57:00,13.0,11.1,30.43,SW,217,0.0,0.0,92,0.00,,---,0.00,VWS V14.01,2013-01-14 05:57:00,
2013-01-13 22:02:00,13.2,11.3,30.44,SW,217,0.0,0.0,92,0.00,,---,0.00,VWS V14.01,2013-01-14 06:02:00,
2013-01-13 22:07:00,13.2,11.3,30.44,SW,217,0.0,0.0,92,0.00,,---,0.00,VWS V14.01,2013-01-14 06:07:00,
2013-01-13 22:12:00,13.4,11.5,30.44,SW,217,0.0,0.0,92,0.00,,---,0.00,VWS V14.01,2013-01-14 06:12:00,
2013-01-13 22:17:00,13.5,11.6,30.43,SW,217,0.0,0.0,92,0.00,,---,0.00,VWS V14.01,2013-01-14 06:17:00,
2013-01-13 22:22:00,13.6,11.7,30.44,SW,217,0.0,0.0,92,0.00,,---,0.00,VWS V14.01,2013-01-14 06:22:00,
2013-01-13 22:27:00,13.7,11.8,30.43,SW,217,0.0,0.0,92,0.00,,---,0.00,VWS V14.01,2013-01-14 06:27:00,
2013-01-13 22:32:00,13.7,11.8,30.43,SW,217,0.0,0.0,92,0.00,,---,0.00,VWS V14.01,2013-01-14 06:32:00,
2013-01-13 22:37:00,13.8,11.9,30.43,SW,217,0.0,0.0,92,0.00,,---,0.00,VWS V14.01,2013-01-14 06:37:00,
2013-01-13 22:42:00,13.9,12.0,30.43,SW,217,0.0,0.0,92,0.00,,---,0.00,VWS V14.01,2013-01-14 06:42:00,
2013-01-13 22:47:00,14.0,12.1,30.42,SW,217,0.0,0.0,92,0.00,,---,0.00,VWS V14.01,2013-01-14 06:47:00,
2013-01-13 22:52:00,14.1,12.2,30.42,SW,217,0.0,0.0,92,0.00,,---,0.00,VWS V14.01,2013-01-14 06:52:00,
2013-01-13 22:57:00,14.2,12.3,30.42,SW,217,0.0,0.0,92,0.00,,---,0.00,VWS V14.01,2013-01-14 06:57:00,
2013-01-13 23:02:00,14.2,12.3,30.43,SW,217,0.0,0.0,92,0.00,,---,0.00,VWS V14.01,2013-01-14 07:02:00,
2013-01-13 23:07:00,14.2,12.3,30.43,SW,218,0.0,0.0,92,0.00,,---,0.00,VWS V14.01,2013-01-14 07:07:00,
2013-01-13 23:12:00,14.3,12.4,30.43,SW,217,0.0,0.0,92,0.00,,---,0.00,VWS V14.01,2013-01-14 07:12:00,
2013-01-13 23:17:00,14.4,12.8,30.44,SW,217,0.0,0.0,93,0.00,,---,0.00,VWS V14.01,2013-01-14 07:17:00,
2013-01-13 23:22:00,14.5,12.6,30.44,SW,217,0.0,0.0,92,0.00,,---,0.00,VWS V14.01,2013-01-14 07:22:00,
2013-01-13 23:27:00,14.6,12.7,30.44,SW,217,0.0,0.0,92,0.00,,---,0.00,VWS V14.01,2013-01-14 07:27:00,
2013-01-13 23:32:00,14.6,12.7,30.44,SW,217,0.0,0.0,92,0.00,,---,0.00,VWS V14.01,2013-01-14 07:32:00,
2013-01-13 23:37:00,14.7,12.8,30.44,SW,217,0.0,0.0,92,0.00,,---,0.00,VWS V14.01,2013-01-14 07:37:00,
2013-01-13 23:42:00,14.8,13.1,30.43,SW,217,0.0,0.0,93,0.00,,---,0.00,VWS V14.01,2013-01-14 07:42:00,
2013-01-13 23:47:00,14.8,13.1,30.43,SW,217,0.0,0.0,93,0.00,,---,0.00,VWS V14.01,2013-01-14 07:47:00,
2013-01-13 23:52:00,14.8,13.1,30.43,SW,217,0.0,0.0,93,0.00,,---,0.00,VWS V14.01,2013-01-14 07:52:00,
2013-01-13 23:57:00,14.8,13.1,30.43,SW,217,0.0,0.0,93,0.00,,---,0.00,VWS V14.01,2013-01-14 07:57:00,